| time (UTC) | temp C | wind direction | speed KPH | gust KPH | rain 1hr cm | rain 24hr cm | rain mn cm | humidity % | barometer mb |
| 20260502233621 | 17 | 245 | 1.6 | 4.8 | 0.00 | 0.00 | 0.00 | 37 | 1007.8 |
| 20260502233118 | 17 | 170 | 0.0 | 3.2 | 0.00 | 0.00 | 0.00 | 38 | 1008.0 |
| 20260502232614 | 17 | 226 | 4.8 | 4.8 | 0.00 | 0.00 | 0.00 | 37 | 1008.1 |
| 20260502232112 | 17 | 125 | 1.6 | 3.2 | 0.00 | 0.00 | 0.00 | 38 | 1008.2 |
| 20260502231608 | 17 | 257 | 1.6 | 3.2 | 0.00 | 0.00 | 0.00 | 38 | 1008.1 |
| 20260502231107 | 17 | 142 | 1.6 | 4.8 | 0.00 | 0.00 | 0.00 | 38 | 1008.4 |
| 20260502230604 | 17 | 90 | 1.6 | 3.2 | 0.00 | 0.00 | 0.00 | 37 | 1008.1 |
| 20260502225558 | 17 | 154 | 1.6 | 3.2 | 0.00 | 0.00 | 0.00 | 38 | 1008.1 |
| 20260502225055 | 17 | 147 | 1.6 | 3.2 | 0.00 | 0.00 | 0.00 | 37 | 1008.2 |
| 20260502224551 | 17 | 159 | 1.6 | 3.2 | 0.00 | 0.00 | 0.00 | 36 | 1008.1 |
| 20260502224048 | 17 | 130 | 1.6 | 4.8 | 0.00 | 0.00 | 0.00 | 36 | 1008.4 |
| 20260502223546 | 17 | 189 | 1.6 | 3.2 | 0.00 | 0.00 | 0.00 | 36 | 1008.2 |
| 20260502223044 | 17 | 128 | 0.0 | 8.0 | 0.00 | 0.00 | 0.00 | 36 | 1008.3 |
| 20260502222541 | 17 | 154 | 1.6 | 4.8 | 0.00 | 0.00 | 0.00 | 36 | 1008.4 |
| 20260502222037 | 17 | 143 | 1.6 | 3.2 | 0.00 | 0.00 | 0.00 | 36 | 1008.6 |
| 20260502221533 | 17 | 204 | 1.6 | 4.8 | 0.00 | 0.00 | 0.00 | 36 | 1008.6 |
| 20260502221031 | 17 | 137 | 0.0 | 4.8 | 0.00 | 0.00 | 0.00 | 36 | 1008.6 |
| 20260502220526 | 17 | 161 | 1.6 | 4.8 | 0.00 | 0.00 | 0.00 | 36 | 1008.7 |
| 20260502220024 | 17 | 318 | 4.8 | 4.8 | 0.00 | 0.00 | 0.00 | 35 | 1008.7 |
| 20260502215520 | 17 | 100 | 1.6 | 8.0 | 0.00 | 0.00 | 0.00 | 34 | 1008.9 |
| 20260502215017 | 17 | 283 | 3.2 | 4.8 | 0.00 | 0.00 | 0.00 | 35 | 1009.0 |
| 20260502214514 | 17 | 25 | 1.6 | 4.8 | 0.00 | 0.00 | 0.00 | 36 | 1008.9 |
| 20260502214012 | 17 | 197 | 1.6 | 4.8 | 0.00 | 0.00 | 0.00 | 34 | 1009.2 |
| 20260502213508 | 17 | 162 | 1.6 | 4.8 | 0.00 | 0.00 | 0.00 | 35 | 1009.1 |
| 20260502213007 | 17 | 114 | 3.2 | 8.0 | 0.00 | 0.00 | 0.00 | 34 | 1009.2 |
| 20260502212505 | 17 | 182 | 1.6 | 4.8 | 0.00 | 0.00 | 0.00 | 36 | 1009.3 |
| 20260502212002 | 17 | 102 | 1.6 | 4.8 | 0.00 | 0.00 | 0.00 | 35 | 1009.6 |
| 20260502211457 | 17 | 186 | 8.0 | 11.3 | 0.00 | 0.00 | 0.00 | 33 | 1009.4 |
| 20260502210955 | 18 | 202 | 6.4 | 9.7 | 0.00 | 0.00 | 0.00 | 32 | 1009.8 |
| 20260502210451 | 19 | 240 | 3.2 | 4.8 | 0.00 | 0.00 | 0.00 | 31 | 1009.8 |
| 20260502205949 | 20 | 214 | 8.0 | 9.7 | 0.00 | 0.00 | 0.00 | 31 | 1009.6 |
| 20260502205445 | 20 | 182 | 3.2 | 8.0 | 0.00 | 0.00 | 0.00 | 32 | 1009.8 |
| 20260502204942 | 19 | 149 | 0.0 | 4.8 | 0.00 | 0.00 | 0.00 | 33 | 1009.9 |
| 20260502204439 | 18 | 282 | 6.4 | 11.3 | 0.00 | 0.00 | 0.00 | 33 | 1009.9 |
| 20260502203937 | 17 | 153 | 3.2 | 9.7 | 0.00 | 0.00 | 0.00 | 32 | 1010.2 |
| 20260502203434 | 17 | 159 | 1.6 | 4.8 | 0.00 | 0.00 | 0.00 | 33 | 1010.4 |
| 20260502202930 | 17 | 141 | 0.0 | 8.0 | 0.00 | 0.00 | 0.00 | 36 | 1010.4 |
| 20260502202427 | 17 | 176 | 1.6 | 9.7 | 0.00 | 0.00 | 0.00 | 35 | 1010.5 |
| 20260502201925 | 17 | 144 | 0.0 | 8.0 | 0.00 | 0.00 | 0.00 | 34 | 1010.6 |
| 20260502201421 | 17 | 112 | 4.8 | 12.9 | 0.00 | 0.00 | 0.00 | 34 | 1010.9 |
| 20260502200918 | 17 | 277 | 4.8 | 4.8 | 0.00 | 0.00 | 0.00 | 34 | 1010.8 |
| 20260502200413 | 18 | 276 | 4.8 | 8.0 | 0.00 | 0.00 | 0.00 | 32 | 1011.0 |
| 20260502195912 | 18 | 157 | 1.6 | 9.7 | 0.00 | 0.00 | 0.00 | 32 | 1011.1 |
| 20260502195408 | 18 | 181 | 4.8 | 8.0 | 0.00 | 0.00 | 0.00 | 32 | 1011.0 |
| 20260502194905 | 18 | 119 | 4.8 | 11.3 | 0.00 | 0.00 | 0.00 | 31 | 1011.0 |
| 20260502194402 | 17 | 184 | 3.2 | 8.0 | 0.00 | 0.00 | 0.00 | 32 | 1011.0 |
| 20260502193857 | 17 | 127 | 0.0 | 8.0 | 0.00 | 0.00 | 0.00 | 33 | 1011.2 |
| 20260502193355 | 16 | 172 | 4.8 | 9.7 | 0.00 | 0.00 | 0.00 | 33 | 1011.2 |
| 20260502192850 | 17 | 158 | 4.8 | 4.8 | 0.00 | 0.00 | 0.00 | 32 | 1011.3 |
| 20260502192348 | 17 | 173 | 3.2 | 8.0 | 0.00 | 0.00 | 0.00 | 33 | 1011.6 |
| 20260502191844 | 17 | 166 | 3.2 | 9.7 | 0.00 | 0.00 | 0.00 | 32 | 1011.5 |
| 20260502191343 | 17 | 225 | 4.8 | 9.7 | 0.00 | 0.00 | 0.00 | 31 | 1011.9 |
| 20260502190839 | 17 | 162 | 3.2 | 11.3 | 0.00 | 0.00 | 0.00 | 32 | 1011.8 |
| 20260502190337 | 17 | 279 | 4.8 | 4.8 | 0.00 | 0.00 | 0.00 | 33 | 1012.1 |
| 20260502185832 | 16 | 182 | 4.8 | 11.3 | 0.00 | 0.00 | 0.00 | 32 | 1012.1 |
| 20260502185328 | 16 | 149 | 3.2 | 4.8 | 0.00 | 0.00 | 0.00 | 32 | 1012.1 |
| 20260502184825 | 16 | 126 | 3.2 | 8.0 | 0.00 | 0.00 | 0.00 | 34 | 1012.2 |
| 20260502184321 | 15 | 147 | 4.8 | 4.8 | 0.00 | 0.00 | 0.00 | 34 | 1012.3 |
| 20260502183818 | 17 | 134 | 6.4 | 9.7 | 0.00 | 0.00 | 0.00 | 32 | 1012.3 |
| 20260502183314 | 17 | 128 | 1.6 | 4.8 | 0.00 | 0.00 | 0.00 | 33 | 1012.5 |
| 20260502182809 | 17 | 337 | 8.0 | 9.7 | 0.00 | 0.00 | 0.00 | 32 | 1012.4 |
| 20260502182305 | 16 | 130 | 1.6 | 4.8 | 0.00 | 0.00 | 0.00 | 35 | 1012.4 |
| 20260502181802 | 16 | 140 | 1.6 | 4.8 | 0.00 | 0.00 | 0.00 | 33 | 1012.3 |
| 20260502181300 | 16 | 155 | 4.8 | 8.0 | 0.00 | 0.00 | 0.00 | 33 | 1012.6 |
| 20260502180758 | 16 | 201 | 0.0 | 8.0 | 0.00 | 0.00 | 0.00 | 33 | 1012.9 |
| 20260502180255 | 16 | 46 | 3.2 | 3.2 | 0.00 | 0.00 | 0.00 | 34 | 1013.0 |
| 20260502170214 | 16 | 211 | 4.8 | 9.7 | 0.00 | 0.00 | 0.00 | 33 | 1014.0 |
| 20260502164201 | 15 | 110 | 3.2 | 11.3 | 0.00 | 0.00 | 0.00 | 36 | 1014.2 |
| 20260502163656 | 15 | 178 | 3.2 | 8.0 | 0.00 | 0.00 | 0.00 | 33 | 1014.4 |
| 20260502163153 | 15 | 152 | 1.6 | 8.0 | 0.00 | 0.00 | 0.00 | 35 | 1014.3 |
| 20260502162650 | 15 | 167 | 4.8 | 8.0 | 0.00 | 0.00 | 0.00 | 33 | 1014.7 |
| 20260502162147 | 13 | 165 | 4.8 | 9.7 | 0.00 | 0.00 | 0.00 | 35 | 1014.5 |
| 20260502161644 | 15 | 36 | 3.2 | 9.7 | 0.00 | 0.00 | 0.00 | 33 | 1014.5 |
| 20260502161140 | 15 | 162 | 0.0 | 4.8 | 0.00 | 0.00 | 0.00 | 35 | 1014.6 |
| 20260502160639 | 14 | 199 | 4.8 | 8.0 | 0.00 | 0.00 | 0.00 | 36 | 1014.8 |
| 20260502160137 | 14 | 192 | 4.8 | 9.7 | 0.00 | 0.00 | 0.00 | 35 | 1014.8 |
| 20260502152051 | 12 | 128 | 3.2 | 4.8 | 0.00 | 0.00 | 0.00 | 36 | 1015.3 |
| 20260502151549 | 13 | 114 | 0.0 | 3.2 | 0.00 | 0.00 | 0.00 | 36 | 1015.2 |
| 20260502151046 | 13 | 153 | 1.6 | 4.8 | 0.00 | 0.00 | 0.00 | 37 | 1015.3 |
| 20260502150543 | 12 | 116 | 0.0 | 4.8 | 0.00 | 0.00 | 0.00 | 37 | 1015.2 |
| 20260502130428 | 4 | 145 | 1.6 | 1.6 | 0.00 | 0.00 | 0.00 | 72 | 1016.1 |
| 20260502123411 | 2 | 152 | 1.6 | 3.2 | 0.00 | 0.00 | 0.00 | 77 | 1015.9 |
| 20260502122908 | 1 | 144 | 0.0 | 1.6 | 0.00 | 0.00 | 0.00 | 84 | 1015.9 |
| 20260502122404 | 1 | 144 | 1.6 | 3.2 | 0.00 | 0.00 | 0.00 | 84 | 1016.0 |
| 20260502121902 | 0 | 154 | 1.6 | 3.2 | 0.00 | 0.00 | 0.00 | 90 | 1016.0 |
| 20260502121359 | 0 | 138 | 0.0 | 0.0 | 0.00 | 0.00 | 0.00 | 88 | 1015.8 |
| 20260502120857 | 0 | 138 | 0.0 | 1.6 | 0.00 | 0.00 | 0.00 | 88 | 1015.7 |
| 20260502120353 | 0 | 138 | 0.0 | 0.0 | 0.00 | 0.00 | 0.00 | 89 | 1015.9 |
| 20260502115850 | -1 | 138 | 0.0 | 0.0 | 0.00 | 0.00 | 0.00 | 89 | 1015.8 |
| 20260502115347 | -1 | 138 | 0.0 | 0.0 | 0.00 | 0.00 | 0.00 | 88 | 1015.9 |
| 20260502114843 | -1 | 139 | 0.0 | 0.0 | 0.00 | 0.00 | 0.00 | 88 | 1016.0 |
| 20260502114340 | -1 | 139 | 0.0 | 0.0 | 0.00 | 0.00 | 0.00 | 88 | 1015.9 |
| 20260502113837 | -1 | 139 | 0.0 | 0.0 | 0.00 | 0.00 | 0.00 | 87 | 1016.0 |
| 20260502113335 | -1 | 139 | 0.0 | 0.0 | 0.00 | 0.00 | 0.00 | 86 | 1015.9 |
| 20260502112833 | -1 | 139 | 0.0 | 0.0 | 0.00 | 0.00 | 0.00 | 86 | 1016.0 |
| 20260502112330 | -1 | 139 | 0.0 | 0.0 | 0.00 | 0.00 | 0.00 | 86 | 1015.8 |
| 20260502111828 | -1 | 140 | 0.0 | 0.0 | 0.00 | 0.00 | 0.00 | 86 | 1015.6 |
| 20260502111325 | -1 | 140 | 0.0 | 0.0 | 0.00 | 0.00 | 0.00 | 86 | 1015.7 |
| 20260502110823 | -1 | 140 | 0.0 | 0.0 | 0.00 | 0.00 | 0.00 | 85 | 1015.9 |
| 20260502110320 | -1 | 140 | 0.0 | 0.0 | 0.00 | 0.00 | 0.00 | 85 | 1015.7 |
| 20260502105818 | -1 | 140 | 0.0 | 0.0 | 0.00 | 0.00 | 0.00 | 86 | 1015.8 |
| 20260502105314 | -1 | 140 | 0.0 | 0.0 | 0.00 | 0.00 | 0.00 | 86 | 1015.8 |
| 20260502104812 | -1 | 140 | 0.0 | 0.0 | 0.00 | 0.00 | 0.00 | 85 | 1015.7 |
| 20260502104309 | -1 | 140 | 0.0 | 0.0 | 0.00 | 0.00 | 0.00 | 84 | 1015.8 |
| 20260502103806 | -1 | 140 | 0.0 | 0.0 | 0.00 | 0.00 | 0.00 | 82 | 1015.8 |
| 20260502103303 | -1 | 140 | 0.0 | 0.0 | 0.00 | 0.00 | 0.00 | 82 | 1015.8 |
| 20260502102801 | -1 | 140 | 0.0 | 1.6 | 0.00 | 0.00 | 0.00 | 81 | 1015.8 |
| 20260502102257 | -1 | 140 | 0.0 | 0.0 | 0.00 | 0.00 | 0.00 | 81 | 1015.8 |
| 20260502101755 | -1 | 140 | 0.0 | 0.0 | 0.00 | 0.00 | 0.00 | 82 | 1015.8 |
| 20260502101253 | -1 | 140 | 0.0 | 0.0 | 0.00 | 0.00 | 0.00 | 81 | 1015.7 |
| 20260502100751 | 0 | 140 | 0.0 | 1.6 | 0.00 | 0.00 | 0.00 | 79 | 1015.7 |
| 20260502100249 | 0 | 140 | 0.0 | 1.6 | 0.00 | 0.00 | 0.00 | 78 | 1015.6 |
| 20260502091224 | 0 | 139 | 0.0 | 0.0 | 0.00 | 0.00 | 0.00 | 76 | 1015.5 |
| 20260502090721 | 0 | 139 | 0.0 | 0.0 | 0.00 | 0.00 | 0.00 | 75 | 1015.4 |
| 20260502090217 | 1 | 139 | 0.0 | 0.0 | 0.00 | 0.00 | 0.00 | 73 | 1015.5 |
| 20260502071113 | 1 | 138 | 0.0 | 0.0 | 0.00 | 0.00 | 0.00 | 69 | 1015.8 |
| 20260502070611 | 1 | 138 | 0.0 | 0.0 | 0.00 | 0.00 | 0.00 | 68 | 1015.8 |
| 20260502070109 | 2 | 138 | 1.6 | 1.6 | 0.00 | 0.00 | 0.00 | 67 | 1015.8 |
| 20260502065607 | 2 | 138 | 0.0 | 0.0 | 0.00 | 0.00 | 0.00 | 63 | 1015.9 |
| 20260502065104 | 2 | 138 | 0.0 | 0.0 | 0.00 | 0.00 | 0.00 | 63 | 1015.7 |
| 20260502064603 | 2 | 138 | 0.0 | 0.0 | 0.00 | 0.00 | 0.00 | 64 | 1015.9 |
| 20260502064100 | 2 | 138 | 0.0 | 0.0 | 0.00 | 0.00 | 0.00 | 65 | 1016.0 |
| 20260502063557 | 1 | 138 | 0.0 | 0.0 | 0.00 | 0.00 | 0.00 | 66 | 1016.0 |
| 20260502063055 | 1 | 138 | 0.0 | 0.0 | 0.00 | 0.00 | 0.00 | 67 | 1015.8 |
| 20260502062552 | 1 | 138 | 0.0 | 0.0 | 0.00 | 0.00 | 0.00 | 69 | 1016.0 |
| 20260502062050 | 1 | 138 | 0.0 | 0.0 | 0.00 | 0.00 | 0.00 | 72 | 1016.2 |
| 20260502061547 | 1 | 138 | 0.0 | 0.0 | 0.00 | 0.00 | 0.00 | 69 | 1016.0 |
| 20260502061044 | 1 | 138 | 0.0 | 0.0 | 0.00 | 0.00 | 0.00 | 71 | 1015.9 |
| 20260502060539 | 1 | 138 | 0.0 | 0.0 | 0.00 | 0.00 | 0.00 | 68 | 1015.9 |
| 20260502060037 | 1 | 138 | 0.0 | 0.0 | 0.00 | 0.00 | 0.00 | 69 | 1016.1 |
| 20260502055534 | 1 | 138 | 0.0 | 0.0 | 0.00 | 0.00 | 0.00 | 71 | 1016.0 |
| 20260502055033 | 1 | 138 | 0.0 | 1.6 | 0.00 | 0.00 | 0.00 | 72 | 1015.9 |
| 20260502054531 | 2 | 138 | 0.0 | 0.0 | 0.00 | 0.00 | 0.00 | 68 | 1016.0 |
| 20260502054027 | 2 | 138 | 0.0 | 0.0 | 0.00 | 0.00 | 0.00 | 66 | 1016.0 |
| 20260502053524 | 2 | 138 | 0.0 | 0.0 | 0.00 | 0.00 | 0.00 | 66 | 1016.0 |
| 20260502053022 | 2 | 138 | 0.0 | 0.0 | 0.00 | 0.00 | 0.00 | 66 | 1016.0 |
| 20260502052520 | 2 | 138 | 0.0 | 0.0 | 0.00 | 0.00 | 0.00 | 67 | 1015.9 |
| 20260502052018 | 2 | 138 | 0.0 | 1.6 | 0.00 | 0.00 | 0.00 | 67 | 1016.0 |
| 20260502051516 | 2 | 138 | 0.0 | 0.0 | 0.00 | 0.00 | 0.00 | 70 | 1015.8 |
| 20260502051014 | 2 | 138 | 0.0 | 0.0 | 0.00 | 0.00 | 0.00 | 69 | 1016.0 |
| 20260502050509 | 1 | 138 | 0.0 | 0.0 | 0.00 | 0.00 | 0.00 | 70 | 1015.9 |
| 20260502050007 | 2 | 138 | 0.0 | 0.0 | 0.00 | 0.00 | 0.00 | 74 | 1015.9 |
| 20260502045503 | 2 | 138 | 0.0 | 0.0 | 0.00 | 0.00 | 0.00 | 74 | 1016.0 |
| 20260502045001 | 2 | 138 | 0.0 | 0.0 | 0.00 | 0.00 | 0.00 | 72 | 1016.0 |
| 20260502044456 | 2 | 138 | 0.0 | 0.0 | 0.00 | 0.00 | 0.00 | 70 | 1015.9 |
| 20260502043953 | 2 | 138 | 0.0 | 0.0 | 0.00 | 0.00 | 0.00 | 69 | 1016.0 |
| 20260502043451 | 2 | 138 | 0.0 | 0.0 | 0.00 | 0.00 | 0.00 | 64 | 1015.8 |
| 20260502042950 | 3 | 138 | 0.0 | 0.0 | 0.00 | 0.00 | 0.00 | 62 | 1016.0 |
| 20260502042447 | 3 | 138 | 0.0 | 0.0 | 0.00 | 0.00 | 0.00 | 60 | 1016.0 |
| 20260502041945 | 4 | 138 | 0.0 | 0.0 | 0.00 | 0.00 | 0.00 | 58 | 1016.0 |
| 20260502041443 | 4 | 138 | 0.0 | 1.6 | 0.00 | 0.00 | 0.00 | 58 | 1016.0 |
| 20260502040939 | 5 | 138 | 0.0 | 0.0 | 0.00 | 0.00 | 0.00 | 56 | 1016.0 |
| 20260502040436 | 5 | 138 | 0.0 | 0.0 | 0.00 | 0.00 | 0.00 | 55 | 1015.8 |
| 20260502035932 | 5 | 138 | 0.0 | 1.6 | 0.00 | 0.00 | 0.00 | 57 | 1015.7 |
| 20260502035428 | 5 | 138 | 0.0 | 1.6 | 0.00 | 0.00 | 0.00 | 56 | 1016.1 |
| 20260502034926 | 5 | 138 | 0.0 | 1.6 | 0.00 | 0.00 | 0.00 | 57 | 1016.1 |
| 20260502034425 | 5 | 138 | 0.0 | 1.6 | 0.00 | 0.00 | 0.00 | 57 | 1015.8 |
| 20260502033923 | 5 | 138 | 0.0 | 1.6 | 0.00 | 0.00 | 0.00 | 57 | 1016.0 |
| 20260502033420 | 5 | 138 | 0.0 | 1.6 | 0.00 | 0.00 | 0.00 | 57 | 1016.0 |
| 20260502032917 | 5 | 138 | 0.0 | 1.6 | 0.00 | 0.00 | 0.00 | 57 | 1015.8 |
| 20260502032413 | 5 | 138 | 0.0 | 0.0 | 0.00 | 0.00 | 0.00 | 59 | 1016.0 |
| 20260502031910 | 4 | 138 | 0.0 | 0.0 | 0.00 | 0.00 | 0.00 | 60 | 1016.0 |
| 20260502031409 | 4 | 138 | 0.0 | 0.0 | 0.00 | 0.00 | 0.00 | 62 | 1015.9 |
| 20260502030907 | 5 | 138 | 0.0 | 0.0 | 0.00 | 0.00 | 0.00 | 59 | 1016.2 |
| 20260502030405 | 5 | 138 | 0.0 | 0.0 | 0.00 | 0.00 | 0.00 | 57 | 1016.0 |
| 20260502025903 | 5 | 138 | 0.0 | 0.0 | 0.00 | 0.00 | 0.00 | 56 | 1015.9 |
| 20260502025359 | 5 | 138 | 0.0 | 0.0 | 0.00 | 0.00 | 0.00 | 56 | 1016.0 |
| 20260502024857 | 5 | 138 | 0.0 | 0.0 | 0.00 | 0.00 | 0.00 | 58 | 1016.2 |
| 20260502024354 | 6 | 138 | 0.0 | 0.0 | 0.00 | 0.00 | 0.00 | 54 | 1016.0 |
| 20260502023852 | 6 | 138 | 0.0 | 0.0 | 0.00 | 0.00 | 0.00 | 51 | 1015.7 |
| 20260502023350 | 6 | 138 | 0.0 | 0.0 | 0.00 | 0.00 | 0.00 | 52 | 1015.8 |
| 20260502022847 | 6 | 138 | 0.0 | 0.0 | 0.00 | 0.00 | 0.00 | 51 | 1015.8 |
| 20260502022343 | 6 | 138 | 0.0 | 0.0 | 0.00 | 0.00 | 0.00 | 50 | 1015.8 |
| 20260502021840 | 6 | 138 | 0.0 | 0.0 | 0.00 | 0.00 | 0.00 | 49 | 1015.6 |
| 20260502021338 | 7 | 138 | 0.0 | 0.0 | 0.00 | 0.00 | 0.00 | 48 | 1015.6 |
| 20260502020835 | 7 | 138 | 0.0 | 0.0 | 0.00 | 0.00 | 0.00 | 50 | 1015.8 |
| 20260502020333 | 7 | 138 | 0.0 | 0.0 | 0.00 | 0.00 | 0.00 | 49 | 1015.6 |
| 20260502015829 | 7 | 138 | 0.0 | 0.0 | 0.00 | 0.00 | 0.00 | 46 | 1015.6 |
| 20260502015327 | 7 | 138 | 0.0 | 0.0 | 0.00 | 0.00 | 0.00 | 46 | 1015.6 |
| 20260502014824 | 7 | 138 | 0.0 | 0.0 | 0.00 | 0.00 | 0.00 | 44 | 1015.6 |
| 20260502014321 | 8 | 138 | 0.0 | 0.0 | 0.00 | 0.00 | 0.00 | 43 | 1015.5 |
| 20260502013817 | 8 | 138 | 0.0 | 0.0 | 0.00 | 0.00 | 0.00 | 43 | 1015.4 |
| 20260502013313 | 8 | 138 | 0.0 | 0.0 | 0.00 | 0.00 | 0.00 | 42 | 1015.5 |
| 20260502012809 | 8 | 138 | 0.0 | 0.0 | 0.00 | 0.00 | 0.00 | 43 | 1015.4 |
| 20260502012307 | 8 | 138 | 0.0 | 0.0 | 0.00 | 0.00 | 0.00 | 44 | 1015.4 |
| 20260502011804 | 8 | 138 | 0.0 | 0.0 | 0.00 | 0.00 | 0.00 | 43 | 1015.4 |
| 20260502011300 | 8 | 138 | 0.0 | 0.0 | 0.00 | 0.00 | 0.00 | 43 | 1015.3 |
| 20260502010757 | 9 | 138 | 0.0 | 0.0 | 0.00 | 0.00 | 0.00 | 41 | 1015.3 |
| 20260502010254 | 9 | 138 | 0.0 | 0.0 | 0.00 | 0.00 | 0.00 | 41 | 1015.1 |
| 20260502005751 | 10 | 138 | 0.0 | 0.0 | 0.00 | 0.00 | 0.00 | 39 | 1015.3 |
| 20260502005249 | 10 | 138 | 0.0 | 0.0 | 0.00 | 0.00 | 0.00 | 40 | 1015.2 |
| 20260502004745 | 10 | 138 | 0.0 | 0.0 | 0.00 | 0.00 | 0.00 | 38 | 1015.2 |
| 20260502004242 | 10 | 138 | 0.0 | 0.0 | 0.00 | 0.00 | 0.00 | 39 | 1015.2 |
| 20260502003739 | 10 | 138 | 0.0 | 0.0 | 0.00 | 0.00 | 0.00 | 39 | 1015.4 |
| 20260502003237 | 10 | 147 | 1.6 | 1.6 | 0.00 | 0.00 | 0.00 | 37 | 1015.5 |
| 20260502002732 | 10 | 145 | 0.0 | 0.0 | 0.00 | 0.00 | 0.00 | 37 | 1015.3 |
| 20260502002230 | 10 | 135 | 0.0 | 1.6 | 0.00 | 0.00 | 0.00 | 37 | 1015.3 |
| 20260502001727 | 10 | 305 | 0.0 | 3.2 | 0.00 | 0.00 | 0.00 | 38 | 1015.5 |
| 20260502001225 | 10 | 96 | 1.6 | 3.2 | 0.00 | 0.00 | 0.00 | 35 | 1015.5 |
| 20260502000723 | 11 | 160 | 1.6 | 1.6 | 0.00 | 0.00 | 0.00 | 35 | 1015.2 |
| 20260502000220 | 11 | 161 | 1.6 | 1.6 | 0.00 | 0.00 | 0.00 | 36 | 1015.3 |
| 20260501235716 | 11 | 147 | 0.0 | 3.2 | 0.00 | 0.00 | 0.00 | 36 | 1015.3 |
| 20260501235212 | 11 | 289 | 3.2 | 3.2 | 0.00 | 0.00 | 0.00 | 36 | 1015.3 |
| 20260501234708 | 11 | 31 | 3.2 | 4.8 | 0.00 | 0.00 | 0.00 | 35 | 1015.2 |
| 20260501234205 | 11 | 128 | 1.6 | 1.6 | 0.00 | 0.00 | 0.00 | 36 | 1015.3 |